Location: Unspecified
(64.9000°N, 0.0000°E)
Time: 15:56:47
(UTC+00:00)

Transit 2A Rocket - Pass Details

Date: 23 June 2019
Orbit: 588 x 915 km, 66.7° (Epoch: 20 July)

Event Time Altitude Azimuth Distance (km) Brightness Sun altitude
Rises 16:40:36 0° 298° (WNW) 3,448 9.1 29.7°
Reaches altitude 10° 16:43:11 10° 296° (WNW) 2,468 8.6 29.4°
Maximum altitude 16:48:49 68° 215° (SW) 854 6.0 28.9°
Drops below altitude 10° 16:53:56 10° 134° (SE) 2,242 7.1 28.3°
Sets 16:56:11 0° 131° (SE) 3,111 7.8 28.1°
